owner,sensor,date,latitude,longitude,vertical_datum,wind_speed,wind_to_direction,wind_speed_of_gust,qcFlag 
TCOON,ioos:station:TCOON:003:1,2010-06-23T21:00:00Z,26.8015,-97.4706,0.0,8.2,100.0,9.8,'11111222,11111222,11111222' 
TCOON,ioos:station:TCOON:003:1,2010-06-23T22:00:00Z,26.8015,-97.4706,0.0,9.4,113.0,11.2,'11111222,11111222,11111222' 
TCOON,ioos:station:TCOON:003:1,2010-06-23T23:00:00Z,26.8015,-97.4706,0.0,8.2,118.0,9.8,'11111222,11111222,11111222' 
TCOON,ioos:station:TCOON:003:1,2010-06-24T00:00:00Z,26.8015,-97.4706,0.0,7.8,118.0,9.1,'11111222,11111222,11111222' 
TCOON,ioos:station:TCOON:003:1,2010-06-24T01:00:00Z,26.8015,-97.4706,0.0,8.3,118.0,9.9,'11111222,11111222,11111222' 
TCOON,ioos:station:TCOON:003:1,2010-06-24T02:00:00Z,26.8015,-97.4706,0.0,8.4,125.0,9.5,'11111222,11111222,11111222' 
TCOON,ioos:station:TCOON:003:1,2010-06-24T03:00:00Z,26.8015,-97.4706,0.0,7.0,120.0,7.9,'11111222,11111222,11111222' 
TCOON,ioos:station:TCOON:003:1,2010-06-24T04:00:00Z,26.8015,-97.4706,0.0,6.3,122.0,7.6,'11111222,11111222,11111222' 
TCOON,ioos:station:TCOON:003:1,2010-06-24T05:00:00Z,26.8015,-97.4706,0.0,7.0,126.0,8.3,'11111222,11111222,11111222' 
TCOON,ioos:station:TCOON:003:1,2010-06-24T06:00:00Z,26.8015,-97.4706,0.0,7.6,133.0,9.2,'11111222,11111222,11111222' 
TCOON,ioos:station:TCOON:003:1,2010-06-24T07:00:00Z,26.8015,-97.4706,0.0,6.0,140.0,6.9,'11111222,11111222,11111222' 
TCOON,ioos:station:TCOON:003:1,2010-06-24T08:00:00Z,26.8015,-97.4706,0.0,5.2,138.0,6.1,'11111222,11111222,11111222' 
TCOON,ioos:station:TCOON:003:1,2010-06-24T09:00:00Z,26.8015,-97.4706,0.0,4.5,131.0,5.2,'11111222,11111222,11111222' 
TCOON,ioos:station:TCOON:003:1,2010-06-24T10:00:00Z,26.8015,-97.4706,0.0,5.0,140.0,5.7,'11111222,11111222,11111222' 
TCOON,ioos:station:TCOON:003:1,2010-06-24T11:00:00Z,26.8015,-97.4706,0.0,3.3,135.0,3.9,'11111222,11111222,11111222' 
TCOON,ioos:station:TCOON:003:1,2010-06-24T12:00:00Z,26.8015,-97.4706,0.0,3.1,123.0,3.6,'11111222,11111222,11111222' 
TCOON,ioos:station:TCOON:003:1,2010-06-24T13:00:00Z,26.8015,-97.4706,0.0,3.1,114.0,3.7,'11111222,11111222,11111222' 
TCOON,ioos:station:TCOON:003:1,2010-06-24T14:00:00Z,26.8015,-97.4706,0.0,2.9,146.0,3.2,'11111222,11111222,11111222' 
TCOON,ioos:station:TCOON:003:1,2010-06-24T15:00:00Z,26.8015,-97.4706,0.0,3.6,132.0,4.1,'11111222,11111222,11111222' 
TCOON,ioos:station:TCOON:003:1,2010-06-24T16:00:00Z,26.8015,-97.4706,0.0,5.5,109.0,6.5,'11111222,11111222,11111222' 
TCOON,ioos:station:TCOON:003:1,2010-06-24T17:00:00Z,26.8015,-97.4706,0.0,5.9,111.0,7.2,'11111222,11111222,11111222' 
TCOON,ioos:station:TCOON:003:1,2010-06-24T18:00:00Z,26.8015,-97.4706,0.0,6.1,104.0,8.2,'11111222,11111222,11111222' 
TCOON,ioos:station:TCOON:003:1,2010-06-24T19:00:00Z,26.8015,-97.4706,0.0,6.6,120.0,8.1,'11111222,11111222,11111222' 
TCOON,ioos:station:TCOON:003:1,2010-06-24T20:00:00Z,26.8015,-97.4706,0.0,7.5,119.0,8.7,'11111222,11111222,11111222' 
TCOON,ioos:station:TCOON:003:1,2010-06-24T21:00:00Z,26.8015,-97.4706,0.0,7.0,104.0,8.3,'11111222,11111222,11111222' 
TCOON,ioos:station:TCOON:003:1,2010-06-24T22:00:00Z,26.8015,-97.4706,0.0,7.8,100.0,9.3,'11111222,11111222,11111222' 
TCOON,ioos:station:TCOON:003:1,2010-06-24T23:00:00Z,26.8015,-97.4706,0.0,7.1,98.0,8.9,'11111222,11111222,11111222' 
TCOON,ioos:station:TCOON:003:1,2010-06-25T00:00:00Z,26.8015,-97.4706,0.0,6.9,105.0,8.2,'11111222,11111222,11111222' 
TCOON,ioos:station:TCOON:003:1,2010-06-25T01:00:00Z,26.8015,-97.4706,0.0,7.2,110.0,8.1,'11111222,11111222,11111222' 
TCOON,ioos:station:TCOON:003:1,2010-06-25T02:00:00Z,26.8015,-97.4706,0.0,6.7,114.0,7.9,'11111222,11111222,11111222' 
TCOON,ioos:station:TCOON:003:1,2010-06-25T03:00:00Z,26.8015,-97.4706,0.0,5.7,113.0,7.1,'11111222,11111222,11111222' 
TCOON,ioos:station:TCOON:003:1,2010-06-25T04:00:00Z,26.8015,-97.4706,0.0,6.6,119.0,8.0,'11111222,11111222,11111222' 
TCOON,ioos:station:TCOON:003:1,2010-06-25T05:00:00Z,26.8015,-97.4706,0.0,6.6,119.0,7.4,'11111222,11111222,11111222' 
TCOON,ioos:station:TCOON:003:1,2010-06-25T06:00:00Z,26.8015,-97.4706,0.0,6.3,117.0,7.8,'11111222,11111222,11111222' 
TCOON,ioos:station:TCOON:003:1,2010-06-25T07:00:00Z,26.8015,-97.4706,0.0,6.2,134.0,7.2,'11111222,11111222,11111222' 
TCOON,ioos:station:TCOON:003:1,2010-06-25T08:00:00Z,26.8015,-97.4706,0.0,5.5,142.0,6.2,'11111222,11111222,11111222' 
TCOON,ioos:station:TCOON:003:1,2010-06-25T09:00:00Z,26.8015,-97.4706,0.0,6.3,149.0,7.1,'11111222,11111222,11111222' 
TCOON,ioos:station:TCOON:003:1,2010-06-25T10:00:00Z,26.8015,-97.4706,0.0,6.1,142.0,7.0,'11111222,11111222,11111222' 
TCOON,ioos:station:TCOON:003:1,2010-06-25T11:00:00Z,26.8015,-97.4706,0.0,2.8,199.0,3.5,'11111222,11111222,11111222' 
TCOON,ioos:station:TCOON:003:1,2010-06-25T12:00:00Z,26.8015,-97.4706,0.0,0.8,146.0,1.2,'11111222,11111222,11111222' 
TCOON,ioos:station:TCOON:003:1,2010-06-25T13:00:00Z,26.8015,-97.4706,0.0,4.9,141.0,5.7,'11111222,11111222,11111222' 
TCOON,ioos:station:TCOON:003:1,2010-06-25T14:00:00Z,26.8015,-97.4706,0.0,4.4,156.0,5.2,'11111222,11111222,11111222' 
TCOON,ioos:station:TCOON:003:1,2010-06-25T15:00:00Z,26.8015,-97.4706,0.0,4.3,152.0,4.8,'11111222,11111222,11111222' 
TCOON,ioos:station:TCOON:003:1,2010-06-25T16:00:00Z,26.8015,-97.4706,0.0,3.7,156.0,4.5,'11111222,11111222,11111222' 
TCOON,ioos:station:TCOON:003:1,2010-06-25T17:00:00Z,26.8015,-97.4706,0.0,5.0,130.0,7.5,'11111222,11111222,11111222' 
TCOON,ioos:station:TCOON:003:1,2010-06-25T18:00:00Z,26.8015,-97.4706,0.0,6.6,117.0,9.1,'11111222,11111222,11111222' 
TCOON,ioos:station:TCOON:003:1,2010-06-25T19:00:00Z,26.8015,-97.4706,0.0,7.2,95.0,9.0,'11111222,11111222,11111222' 
TCOON,ioos:station:TCOON:003:1,2010-06-25T20:00:00Z,26.8015,-97.4706,0.0,7.7,98.0,9.1,'11111222,11111222,11111222' 
TCOON,ioos:station:TCOON:003:1,2010-06-25T21:00:00Z,26.8015,-97.4706,0.0,8.4,94.0,10.7,'11111222,11111222,11111222' 
TCOON,ioos:station:TCOON:003:1,2010-06-25T22:00:00Z,26.8015,-97.4706,0.0,8.5,93.0,10.5,'11111222,11111222,11111222' 
TCOON,ioos:station:TCOON:003:1,2010-06-25T23:00:00Z,26.8015,-97.4706,0.0,7.6,99.0,8.9,'11111222,11111222,11111222' 
TCOON,ioos:station:TCOON:003:1,2010-06-26T00:00:00Z,26.8015,-97.4706,0.0,7.9,104.0,9.9,'11111222,11111222,11111222' 
TCOON,ioos:station:TCOON:003:1,2010-06-26T01:00:00Z,26.8015,-97.4706,0.0,7.3,99.0,8.4,'11111222,11111222,11111222' 
TCOON,ioos:station:TCOON:003:1,2010-06-26T02:00:00Z,26.8015,-97.4706,0.0,7.0,116.0,7.7,'11111222,11111222,11111222' 
TCOON,ioos:station:TCOON:003:1,2010-06-26T03:00:00Z,26.8015,-97.4706,0.0,7.0,120.0,8.2,'11111222,11111222,11111222' 
TCOON,ioos:station:TCOON:003:1,2010-06-26T04:00:00Z,26.8015,-97.4706,0.0,6.7,117.0,7.5,'11111222,11111222,11111222' 
TCOON,ioos:station:TCOON:003:1,2010-06-26T05:00:00Z,26.8015,-97.4706,0.0,6.8,127.0,8.1,'11111222,11111222,11111222' 
TCOON,ioos:station:TCOON:003:1,2010-06-26T06:00:00Z,26.8015,-97.4706,0.0,6.3,132.0,7.5,'11111222,11111222,11111222' 
TCOON,ioos:station:TCOON:003:1,2010-06-26T07:00:00Z,26.8015,-97.4706,0.0,7.4,131.0,8.7,'11111222,11111222,11111222' 
TCOON,ioos:station:TCOON:003:1,2010-06-26T08:00:00Z,26.8015,-97.4706,0.0,7.2,136.0,8.9,'11111222,11111222,11111222' 
TCOON,ioos:station:TCOON:003:1,2010-06-26T09:00:00Z,26.8015,-97.4706,0.0,6.6,136.0,8.0,'11111222,11111222,11111222' 
TCOON,ioos:station:TCOON:003:1,2010-06-26T10:00:00Z,26.8015,-97.4706,0.0,6.5,134.0,7.7,'11111222,11111222,11111222' 
TCOON,ioos:station:TCOON:003:1,2010-06-26T11:00:00Z,26.8015,-97.4706,0.0,6.7,140.0,7.6,'11111222,11111222,11111222' 
TCOON,ioos:station:TCOON:003:1,2010-06-26T12:00:00Z,26.8015,-97.4706,0.0,6.6,142.0,7.3,'11111222,11111222,11111222' 
TCOON,ioos:station:TCOON:003:1,2010-06-26T13:00:00Z,26.8015,-97.4706,0.0,5.7,148.0,6.6,'11111222,11111222,11111222' 
TCOON,ioos:station:TCOON:003:1,2010-06-26T14:00:00Z,26.8015,-97.4706,0.0,6.2,135.0,6.9,'11111222,11111222,11111222' 
TCOON,ioos:station:TCOON:003:1,2010-06-26T15:00:00Z,26.8015,-97.4706,0.0,5.9,143.0,6.9,'11111222,11111222,11111222' 
TCOON,ioos:station:TCOON:003:1,2010-06-26T16:00:00Z,26.8015,-97.4706,0.0,5.6,151.0,6.2,'11111222,11111222,11111222' 
TCOON,ioos:station:TCOON:003:1,2010-06-26T17:00:00Z,26.8015,-97.4706,0.0,7.5,105.0,9.2,'11111222,11111222,11111222' 
TCOON,ioos:station:TCOON:003:1,2010-06-26T18:00:00Z,26.8015,-97.4706,0.0,5.9,111.0,6.9,'11111222,11111222,11111222' 
TCOON,ioos:station:TCOON:003:1,2010-06-26T19:00:00Z,26.8015,-97.4706,0.0,7.6,109.0,9.0,'11111222,11111222,11111222' 
TCOON,ioos:station:TCOON:003:1,2010-06-26T20:00:00Z,26.8015,-97.4706,0.0,7.7,114.0,10.4,'11111222,11111222,11111222' 
TCOON,ioos:station:TCOON:003:1,2010-06-26T21:00:00Z,26.8015,-97.4706,0.0,8.6,108.0,10.3,'11111222,11111222,11111222' 
TCOON,ioos:station:TCOON:003:1,2010-06-26T22:00:00Z,26.8015,-97.4706,0.0,8.9,106.0,10.4,'11111222,11111222,11111222' 
TCOON,ioos:station:TCOON:003:1,2010-06-26T23:00:00Z,26.8015,-97.4706,0.0,9.7,106.0,11.4,'11111222,11111222,11111222' 
TCOON,ioos:station:TCOON:003:1,2010-06-27T00:00:00Z,26.8015,-97.4706,0.0,8.2,120.0,9.8,'11111222,11111222,11111222' 
TCOON,ioos:station:TCOON:003:1,2010-06-27T01:00:00Z,26.8015,-97.4706,0.0,8.6,122.0,9.8,'11111222,11111222,11111222' 
TCOON,ioos:station:TCOON:003:1,2010-06-27T02:00:00Z,26.8015,-97.4706,0.0,7.8,115.0,8.9,'11111222,11111222,11111222' 
TCOON,ioos:station:TCOON:003:1,2010-06-27T03:00:00Z,26.8015,-97.4706,0.0,6.7,122.0,7.8,'11111222,11111222,11111222' 
TCOON,ioos:station:TCOON:003:1,2010-06-27T04:00:00Z,26.8015,-97.4706,0.0,7.1,124.0,8.5,'11111222,11111222,11111222' 
TCOON,ioos:station:TCOON:003:1,2010-06-27T05:00:00Z,26.8015,-97.4706,0.0,7.9,130.0,9.1,'11111222,11111222,11111222' 
TCOON,ioos:station:TCOON:003:1,2010-06-27T06:00:00Z,26.8015,-97.4706,0.0,7.3,132.0,8.6,'11111222,11111222,11111222' 
TCOON,ioos:station:TCOON:003:1,2010-06-27T07:00:00Z,26.8015,-97.4706,0.0,7.3,133.0,8.2,'11111222,11111222,11111222' 
TCOON,ioos:station:TCOON:003:1,2010-06-27T08:00:00Z,26.8015,-97.4706,0.0,6.7,125.0,7.6,'11111222,11111222,11111222' 
TCOON,ioos:station:TCOON:003:1,2010-06-27T09:00:00Z,26.8015,-97.4706,0.0,5.0,122.0,5.6,'11111222,11111222,11111222' 
TCOON,ioos:station:TCOON:003:1,2010-06-27T10:00:00Z,26.8015,-97.4706,0.0,5.3,138.0,6.1,'11111222,11111222,11111222' 
TCOON,ioos:station:TCOON:003:1,2010-06-27T11:00:00Z,26.8015,-97.4706,0.0,4.1,131.0,4.5,'11111222,11111222,11111222' 
TCOON,ioos:station:TCOON:003:1,2010-06-27T12:00:00Z,26.8015,-97.4706,0.0,4.0,134.0,4.6,'11111222,11111222,11111222' 
TCOON,ioos:station:TCOON:003:1,2010-06-27T13:00:00Z,26.8015,-97.4706,0.0,3.8,142.0,4.4,'11111222,11111222,11111222' 
TCOON,ioos:station:TCOON:003:1,2010-06-27T15:00:00Z,26.8015,-97.4706,0.0,4.3,149.0,5.2,'11111222,11111222,11111222' 
TCOON,ioos:station:TCOON:003:1,2010-06-27T16:00:00Z,26.8015,-97.4706,0.0,4.8,154.0,5.5,'11111222,11111222,11111222' 
TCOON,ioos:station:TCOON:003:1,2010-06-27T17:00:00Z,26.8015,-97.4706,0.0,6.4,115.0,7.6,'11111222,11111222,11111222' 
TCOON,ioos:station:TCOON:003:1,2010-06-27T18:00:00Z,26.8015,-97.4706,0.0,6.8,110.0,8.4,'11111222,11111222,11111222' 
TCOON,ioos:station:TCOON:003:1,2010-06-27T19:00:00Z,26.8015,-97.4706,0.0,5.9,94.0,7.3,'11111222,11111222,11111222' 
TCOON,ioos:station:TCOON:003:1,2010-06-27T20:00:00Z,26.8015,-97.4706,0.0,6.2,94.0,7.7,'11111222,11111222,11111222' 
TCOON,ioos:station:TCOON:003:1,2010-06-27T21:00:00Z,26.8015,-97.4706,0.0,7.6,87.0,9.3,'11111222,11111222,11111222' 
TCOON,ioos:station:TCOON:003:1,2010-06-27T22:00:00Z,26.8015,-97.4706,0.0,7.5,92.0,9.3,'11111222,11111222,11111222' 
TCOON,ioos:station:TCOON:003:1,2010-06-27T23:00:00Z,26.8015,-97.4706,0.0,7.8,86.0,9.1,'11111222,11111222,11111222' 
TCOON,ioos:station:TCOON:003:1,2010-06-28T00:00:00Z,26.8015,-97.4706,0.0,7.4,74.0,8.7,'11111222,11111222,11111222' 
TCOON,ioos:station:TCOON:003:1,2010-06-28T01:00:00Z,26.8015,-97.4706,0.0,6.4,81.0,8.1,'11111222,11111222,11111222' 
TCOON,ioos:station:TCOON:003:1,2010-06-28T02:00:00Z,26.8015,-97.4706,0.0,7.8,84.0,8.9,'11111222,11111222,11111222' 
TCOON,ioos:station:TCOON:003:1,2010-06-28T03:00:00Z,26.8015,-97.4706,0.0,7.7,105.0,9.2,'11111222,11111222,11111222' 
TCOON,ioos:station:TCOON:003:1,2010-06-28T04:00:00Z,26.8015,-97.4706,0.0,6.5,114.0,7.4,'11111222,11111222,11111222' 
TCOON,ioos:station:TCOON:003:1,2010-06-28T05:00:00Z,26.8015,-97.4706,0.0,6.2,117.0,7.2,'11111222,11111222,11111222' 
TCOON,ioos:station:TCOON:003:1,2010-06-28T06:00:00Z,26.8015,-97.4706,0.0,5.9,126.0,6.8,'11111222,11111222,11111222' 
TCOON,ioos:station:TCOON:003:1,2010-06-28T07:00:00Z,26.8015,-97.4706,0.0,5.5,118.0,6.4,'11111222,11111222,11111222' 
TCOON,ioos:station:TCOON:003:1,2010-06-28T08:00:00Z,26.8015,-97.4706,0.0,4.7,136.0,5.9,'11111222,11111222,11111222' 
TCOON,ioos:station:TCOON:003:1,2010-06-28T09:00:00Z,26.8015,-97.4706,0.0,3.0,127.0,3.6,'11111222,11111222,11111222' 
TCOON,ioos:station:TCOON:003:1,2010-06-28T10:00:00Z,26.8015,-97.4706,0.0,4.1,121.0,4.5,'11111222,11111222,11111222' 
TCOON,ioos:station:TCOON:003:1,2010-06-28T11:00:00Z,26.8015,-97.4706,0.0,3.5,108.0,3.9,'11111222,11111222,11111222' 
TCOON,ioos:station:TCOON:003:1,2010-06-28T12:00:00Z,26.8015,-97.4706,0.0,3.2,120.0,3.7,'11111222,11111222,11111222' 
TCOON,ioos:station:TCOON:003:1,2010-06-28T13:00:00Z,26.8015,-97.4706,0.0,1.8,109.0,2.1,'11111222,11111222,11111222' 
TCOON,ioos:station:TCOON:003:1,2010-06-28T14:00:00Z,26.8015,-97.4706,0.0,3.2,110.0,3.7,'11111222,11111222,11111222' 
TCOON,ioos:station:TCOON:003:1,2010-06-28T15:00:00Z,26.8015,-97.4706,0.0,2.5,140.0,3.1,'11111222,11111222,11111222' 
TCOON,ioos:station:TCOON:003:1,2010-06-28T16:00:00Z,26.8015,-97.4706,0.0,3.9,111.0,5.2,'11111222,11111222,11111222' 
TCOON,ioos:station:TCOON:003:1,2010-06-28T17:00:00Z,26.8015,-97.4706,0.0,4.8,78.0,6.2,'11111222,11111222,11111222' 
TCOON,ioos:station:TCOON:003:1,2010-06-28T18:00:00Z,26.8015,-97.4706,0.0,6.9,63.0,9.4,'11111222,11111222,11111222' 
TCOON,ioos:station:TCOON:003:1,2010-06-28T19:00:00Z,26.8015,-97.4706,0.0,6.4,69.0,8.5,'11111222,11111222,11111222' 
TCOON,ioos:station:TCOON:003:1,2010-06-28T20:00:00Z,26.8015,-97.4706,0.0,7.5,64.0,9.6,'11111222,11111222,11111222' 
TCOON,ioos:station:TCOON:003:1,2010-06-28T21:00:00Z,26.8015,-97.4706,0.0,7.7,76.0,9.4,'11111222,11111222,11111222' 
TCOON,ioos:station:TCOON:003:1,2010-06-28T22:00:00Z,26.8015,-97.4706,0.0,7.5,71.0,9.2,'11111222,11111222,11111222' 
TCOON,ioos:station:TCOON:003:1,2010-06-28T23:00:00Z,26.8015,-97.4706,0.0,8.1,69.0,9.7,'11111222,11111222,11111222' 
TCOON,ioos:station:TCOON:003:1,2010-06-29T00:00:00Z,26.8015,-97.4706,0.0,6.9,77.0,8.9,'11111222,11111222,11111222' 
TCOON,ioos:station:TCOON:003:1,2010-06-29T01:00:00Z,26.8015,-97.4706,0.0,7.8,80.0,9.9,'11111222,11111222,11111222' 
TCOON,ioos:station:TCOON:003:1,2010-06-29T02:00:00Z,26.8015,-97.4706,0.0,6.7,76.0,7.7,'11111222,11111222,11111222' 
TCOON,ioos:station:TCOON:003:1,2010-06-29T03:00:00Z,26.8015,-97.4706,0.0,5.1,84.0,6.3,'11111222,11111222,11111222' 
TCOON,ioos:station:TCOON:003:1,2010-06-29T04:00:00Z,26.8015,-97.4706,0.0,5.5,77.0,6.7,'11111222,11111222,11111222' 
TCOON,ioos:station:TCOON:003:1,2010-06-29T05:00:00Z,26.8015,-97.4706,0.0,5.9,83.0,7.1,'11111222,11111222,11111222' 
TCOON,ioos:station:TCOON:003:1,2010-06-29T06:00:00Z,26.8015,-97.4706,0.0,5.7,75.0,6.9,'11111222,11111222,11111222' 
TCOON,ioos:station:TCOON:003:1,2010-06-29T07:00:00Z,26.8015,-97.4706,0.0,4.0,70.0,4.9,'11111222,11111222,11111222' 
TCOON,ioos:station:TCOON:003:1,2010-06-29T08:00:00Z,26.8015,-97.4706,0.0,2.8,27.0,3.5,'11111222,11111222,11111222' 
TCOON,ioos:station:TCOON:003:1,2010-06-29T09:00:00Z,26.8015,-97.4706,0.0,3.3,28.0,4.1,'11111222,11111222,11111222' 
TCOON,ioos:station:TCOON:003:1,2010-06-29T10:00:00Z,26.8015,-97.4706,0.0,5.1,19.0,6.1,'11111222,11111222,11111222' 
TCOON,ioos:station:TCOON:003:1,2010-06-29T11:00:00Z,26.8015,-97.4706,0.0,8.7,24.0,11.3,'11111222,11111222,11111222' 
TCOON,ioos:station:TCOON:003:1,2010-06-29T12:00:00Z,26.8015,-97.4706,0.0,7.7,24.0,9.5,'11111222,11111222,11111222' 
TCOON,ioos:station:TCOON:003:1,2010-06-29T13:00:00Z,26.8015,-97.4706,0.0,6.2,27.0,8.1,'11111222,11111222,11111222' 
TCOON,ioos:station:TCOON:003:1,2010-06-29T14:00:00Z,26.8015,-97.4706,0.0,7.7,24.0,9.7,'11111222,11111222,11111222' 
TCOON,ioos:station:TCOON:003:1,2010-06-29T15:00:00Z,26.8015,-97.4706,0.0,8.2,32.0,9.7,'11111222,11111222,11111222' 
TCOON,ioos:station:TCOON:003:1,2010-06-29T16:00:00Z,26.8015,-97.4706,0.0,9.2,4.0,10.8,'11111222,11111222,11111222' 
TCOON,ioos:station:TCOON:003:1,2010-06-29T17:00:00Z,26.8015,-97.4706,0.0,9.8,22.0,11.3,'11111222,11111222,11111222' 
TCOON,ioos:station:TCOON:003:1,2010-06-29T18:00:00Z,26.8015,-97.4706,0.0,9.8,23.0,13.8,'11111222,11111222,11111222' 
TCOON,ioos:station:TCOON:003:1,2010-06-29T19:00:00Z,26.8015,-97.4706,0.0,12.9,16.0,17.9,'11111222,11111222,11111222' 
TCOON,ioos:station:TCOON:003:1,2010-06-29T20:00:00Z,26.8015,-97.4706,0.0,11.9,25.0,14.2,'11111222,11111222,11111222' 
TCOON,ioos:station:TCOON:003:1,2010-06-29T21:00:00Z,26.8015,-97.4706,0.0,11.6,20.0,13.7,'11111222,11111222,11111222' 
TCOON,ioos:station:TCOON:003:1,2010-06-29T22:00:00Z,26.8015,-97.4706,0.0,10.9,46.0,12.4,'11111222,11111222,11111222' 
TCOON,ioos:station:TCOON:003:1,2010-06-29T23:00:00Z,26.8015,-97.4706,0.0,10.8,29.0,12.9,'11111222,11111222,11111222' 
TCOON,ioos:station:TCOON:003:1,2010-06-30T00:00:00Z,26.8015,-97.4706,0.0,8.8,32.0,10.9,'11111222,11111222,11111222' 
TCOON,ioos:station:TCOON:003:1,2010-06-30T01:00:00Z,26.8015,-97.4706,0.0,7.9,29.0,10.0,'11111222,11111222,11111222' 
TCOON,ioos:station:TCOON:003:1,2010-06-30T02:00:00Z,26.8015,-97.4706,0.0,7.8,33.0,9.1,'11111222,11111222,11111222' 
TCOON,ioos:station:TCOON:003:1,2010-06-30T03:00:00Z,26.8015,-97.4706,0.0,8.4,37.0,10.3,'11111222,11111222,11111222' 
TCOON,ioos:station:TCOON:003:1,2010-06-30T04:00:00Z,26.8015,-97.4706,0.0,10.9,34.0,13.2,'11111222,11111222,11111222' 
TCOON,ioos:station:TCOON:003:1,2010-06-30T05:00:00Z,26.8015,-97.4706,0.0,9.9,25.0,12.2,'11111222,11111222,11111222' 
TCOON,ioos:station:TCOON:003:1,2010-06-30T06:00:00Z,26.8015,-97.4706,0.0,10.4,35.0,12.6,'11111222,11111222,11111222' 
TCOON,ioos:station:TCOON:003:1,2010-06-30T07:00:00Z,26.8015,-97.4706,0.0,10.4,40.0,12.6,'11111222,11111222,11111222' 
TCOON,ioos:station:TCOON:003:1,2010-06-30T08:00:00Z,26.8015,-97.4706,0.0,8.5,33.0,10.4,'11111222,11111222,11111222' 
TCOON,ioos:station:TCOON:003:1,2010-06-30T09:00:00Z,26.8015,-97.4706,0.0,4.3,41.0,5.5,'11111222,11111222,11111222' 
TCOON,ioos:station:TCOON:003:1,2010-06-30T10:00:00Z,26.8015,-97.4706,0.0,8.9,17.0,10.3,'11111222,11111222,11111222' 
TCOON,ioos:station:TCOON:003:1,2010-06-30T11:00:00Z,26.8015,-97.4706,0.0,9.3,19.0,11.3,'11111222,11111222,11111222' 
TCOON,ioos:station:TCOON:003:1,2010-06-30T12:00:00Z,26.8015,-97.4706,0.0,12.2,34.0,15.2,'11111222,11111222,11111222' 
TCOON,ioos:station:TCOON:003:1,2010-06-30T13:00:00Z,26.8015,-97.4706,0.0,14.9,20.0,17.9,'11111222,11111222,11111222' 
TCOON,ioos:station:TCOON:003:1,2010-06-30T14:00:00Z,26.8015,-97.4706,0.0,13.8,28.0,17.5,'11111222,11111222,11111222' 
TCOON,ioos:station:TCOON:003:1,2010-06-30T15:00:00Z,26.8015,-97.4706,0.0,13.5,20.0,16.1,'11111222,11111222,11111222' 
TCOON,ioos:station:TCOON:003:1,2010-06-30T16:00:00Z,26.8015,-97.4706,0.0,14.8,28.0,17.7,'11111222,11111222,11111222' 
TCOON,ioos:station:TCOON:003:1,2010-06-30T17:00:00Z,26.8015,-97.4706,0.0,15.5,39.0,18.3,'11111222,11111222,11111222' 
TCOON,ioos:station:TCOON:003:1,2010-06-30T18:00:00Z,26.8015,-97.4706,0.0,15.6,29.0,18.8,'11111222,11111222,11111222' 
TCOON,ioos:station:TCOON:003:1,2010-06-30T19:00:00Z,26.8015,-97.4706,0.0,15.7,23.0,20.7,'11111222,11111222,11111222' 
TCOON,ioos:station:TCOON:003:1,2010-06-30T20:00:00Z,26.8015,-97.4706,0.0,11.6,20.0,14.7,'11111222,11111222,11111222' 
TCOON,ioos:station:TCOON:003:1,2010-06-30T21:00:00Z,26.8015,-97.4706,0.0,14.5,34.0,18.9,'11111222,11111222,11111222' 
TCOON,ioos:station:TCOON:003:1,2010-06-30T22:00:00Z,26.8015,-97.4706,0.0,14.8,37.0,19.2,'11111222,11111222,11111222' 
TCOON,ioos:station:TCOON:003:1,2010-06-30T23:00:00Z,26.8015,-97.4706,0.0,15.2,39.0,21.0,'11111222,11111222,11111222' 
 
DISCLAIMER: The Gulf of Mexico Coastal and Ocean Observing (GCOOS) Data Portal aggregates data from the regional data providers for the convenience of all data users. Data published on this website should not be used for navigation or certain other uses as we cannot guarantee data accuracy or availability. The data and delivery services are provided 'as is' without warranty of any kind. Data Source: Gulf of Mexico Coastal Ocean Observing System Data Portal (http://data.gcoos.org/) 
